Theta_e
305 307 307 306 307 306 306 306 306 306 305 305 305 305 305 306 307 308 310 313 318 321 329 336 338 338 339 339 339 339 339 338 335 336 334 332 334 331 331 331 329 327 326
303 303 306 306 306 306 306 305 306 305 305 304 304 304 304 305 305 305 306 308 309 313 321 325 334 338 337 338 339 339 337 337 336 335 335 332 332 332 331 330 330 328 327
301 302 303 303 302 302 304 305 305 305 305 305 305 305 304 304 304 304 304 305 306 308 310 316 324 331 336 338 339 337 337 337 337 335 335 333 331 331 331 330 330 329 328
300 301 302 302 302 301 301 305 305 304 304 305 305 305 305 304 304 303 303 303 304 305 307 310 313 326 332 334 338 338 338 336 333 335 334 334 332 331 332 331 330 329 328
299 300 301 302 302 301 300 301 301 304 305 305 305 305 304 304 304 303 303 303 303 304 305 305 306 310 316 325 334 337 338 339 337 336 336 335 334 332 331 331 329 329 329
299 299 300 302 302 301 301 301 301 300 301 302 303 304 304 303 303 304 304 303 303 303 303 305 308 309 308 312 324 331 335 338 338 338 338 336 335 333 331 331 329 328 330
298 298 298 299 301 301 301 301 301 302 301 302 304 303 302 302 302 301 303 304 302 303 304 305 305 305 305 309 313 319 333 334 338 339 338 337 337 335 333 331 330 328 329
298 297 298 299 300 300 301 300 301 301 302 301 302 302 300 301 301 301 301 302 303 305 304 303 304 308 316 315 312 317 322 327 331 337 338 338 337 336 334 333 331 329 328
299 299 298 298 298 298 300 301 301 302 302 302 301 301 300 299 299 301 303 303 302 302 302 302 303 305 307 313 318 320 321 323 328 332 335 338 338 337 336 334 332 331 329
298 298 298 298 298 298 298 299 300 301 302 301 302 301 300 300 299 299 301 302 303 303 302 302 302 303 305 308 315 316 320 323 324 325 332 335 338 338 337 336 333 332 330
298 298 298 298 298 298 298 298 299 299 301 301 300 301 301 300 300 299 300 300 303 302 302 302 302 307 307 309 312 313 315 316 324 327 328 329 335 337 337 337 335 333 332
298 298 298 298 298 298 298 298 298 298 299 299 300 300 300 300 300 300 299 299 300 302 302 302 301 302 303 307 306 305 307 308 312 319 325 328 329 334 337 338 337 335 333
298 298 298 298 298 298 298 298 298 298 298 298 299 299 299 299 300 301 300 298 299 301 301 301 302 302 303 303 303 307 312 311 309 310 318 325 329 330 334 336 337 336 332
296 297 298 298 298 298 298 298 298 299 298 298 299 299 299 299 299 300 301 300 299 299 301 301 301 302 303 307 309 311 311 307 309 310 316 322 327 330 331 334 335 334 332
295 296 296 297 298 298 298 298 298 298 298 298 299 298 298 300 299 300 300 301 300 299 299 300 301 301 302 304 307 306 306 305 306 308 312 322 327 330 331 332 333 333 334
295 295 296 296 297 297 298 297 297 297 297 297 298 298 299 299 299 299 299 300 301 300 299 300 301 303 302 304 304 304 306 308 308 307 310 321 327 328 329 331 332 333 330
296 295 296 296 296 297 297 297 297 297 298 298 297 297 298 298 299 299 299 300 301 301 298 300 300 301 303 304 303 305 307 310 310 308 311 321 326 327 329 329 332 325 319
297 296 296 296 296 296 297 297 298 297 297 297 298 298 298 298 298 298 299 300 300 300 301 298 301 303 304 302 303 304 308 311 317 316 319 322 325 327 327 322 319 314 311
298 297 296 296 296 296 297 297 298 297 297 298 298 298 298 298 299 299 299 299 300 300 300 300 300 300 300 301 299 300 300 303 307 315 316 314 316 314 312 310 308 306 304
299 298 297 297 297 297 297 297 297 297 297 297 297 297 298 298 298 298 299 300 300 300 300 300 300 298 297 296 295 292 292 297 294 303 304 303 303 303 302 302 301 300 300
300 298 298 297 297 298 298 298 297 296 297 297 297 297 298 298 298 299 300 300 300 300 299 299 298 295 294 293 292 291 291 291 291 294 295 296 297 298 298 298 298 299 298
299 298 298 298 298 299 300 300 299 298 297 297 297 298 298 298 299 300 300 300 300 300 299 300 298 295 291 291 291 291 292 292 292 290 291 292 294 294 295 296 296 295 295
294 297 298 299 298 298 299 300 302 299 299 298 298 298 298 298 299 299 300 300 301 302 303 301 299 293 290 290 290 290 289 289 288 290 290 289 291 292 292 293 294 296 297
293 293 297 297 298 300 302 302 303 303 300 299 299 299 299 299 299 300 296 294 293 294 297 294 292 289 289 290 289 289 289 290 290 290 290 290 289 290 291 292 292 292 293
293 293 293 297 297 296 297 296 296 297 298 298 300 300 300 300 297 293 292 291 291 292 291 290 290 291 291 291 291 291 290 290 290 290 290 290 290 290 291 291 292 292 291
292 292 292 294 297 296 295 293 291 291 291 292 292 293 293 292 290 289 289 288 288 288 288 289 290 290 291 290 291 291 290 290 290 290 290 290 290 290 290 291 291 291 291
Wind_Speed
28 26 22 23 22 17 14 15 13 13 13 13 16 16 16 16 16 13 15 13 11 12 14 16 20 23 26 25 25 24 25 24 23 22 20 19 18 17 15 15 13 12 11
31 27 24 21 17 17 17 17 14 13 17 17 15 17 18 17 17 17 16 16 17 16 15 16 18 21 27 27 27 27 29 28 27 27 26 23 21 20 18 17 17 15 13
32 32 28 22 20 19 21 18 17 17 17 17 17 16 17 18 18 16 17 18 18 18 19 17 18 20 22 26 29 31 31 31 31 29 29 28 24 24 22 21 19 18 16
31 32 30 20 20 23 23 22 20 20 20 20 20 19 18 18 18 18 17 16 18 22 23 23 19 15 19 23 26 30 31 31 32 32 32 32 30 27 28 24 22 20 19
30 31 29 27 25 21 23 21 18 18 19 19 22 21 21 20 19 18 20 21 20 21 24 28 30 29 23 21 23 25 30 31 34 35 35 36 35 32 30 29 26 23 22
31 32 30 28 25 26 22 21 22 24 26 25 24 20 21 20 19 21 24 24 22 24 25 26 27 28 30 29 24 26 27 29 33 35 37 38 38 36 34 33 31 28 25
30 31 32 29 26 25 25 22 23 24 25 23 19 17 21 24 27 28 29 24 26 24 20 23 26 26 29 29 27 28 25 28 30 32 37 40 41 40 38 36 34 33 28
38 37 34 33 30 29 26 29 27 25 23 23 16 8 2 11 21 28 29 29 25 14 16 18 21 20 17 22 29 26 27 28 28 29 35 37 39 43 43 40 37 37 33
31 30 31 31 29 27 25 23 24 23 22 23 23 11 2 5 4 18 16 16 13 15 23 23 23 22 24 23 21 16 22 28 27 27 32 34 39 41 44 44 40 38 36
34 35 35 33 32 29 28 27 25 29 27 19 19 23 24 17 5 7 23 20 18 18 19 23 24 23 26 25 23 25 22 19 25 28 28 31 36 39 43 44 44 43 39
34 33 33 33 31 30 28 27 29 29 27 27 24 21 23 25 23 6 5 6 18 19 19 21 23 14 18 23 25 25 27 24 23 26 30 32 32 39 41 45 46 48 41
30 31 32 32 32 30 31 31 31 30 27 26 25 25 21 8 8 8 5 5 7 15 14 16 21 21 21 22 24 28 31 29 26 32 31 31 36 35 42 42 47 47 40
27 26 26 28 30 30 31 29 30 30 24 26 28 25 23 21 24 22 13 4 4 13 16 17 20 22 23 27 28 26 26 29 28 28 37 33 32 36 40 43 40 42 36
28 27 25 24 25 27 25 26 22 21 29 29 24 22 25 26 25 22 19 9 3 3 12 19 19 24 20 21 18 19 23 28 27 26 31 35 35 35 36 41 41 40 41
28 28 27 27 25 20 20 22 21 22 23 22 18 28 25 22 25 23 20 19 9 3 4 8 16 22 25 21 24 27 31 32 33 31 29 33 35 34 34 39 41 41 39
28 25 24 23 20 16 19 22 23 22 20 22 22 19 21 24 29 28 28 24 17 10 5 6 17 19 28 29 27 29 30 31 32 32 32 33 34 34 34 36 40 34 37
25 21 19 19 17 16 17 16 19 19 19 17 20 24 23 22 18 27 29 26 20 16 5 10 23 26 24 19 24 22 22 28 31 31 33 30 31 31 32 34 34 44 42
13 14 13 15 13 13 16 18 18 19 18 18 20 20 21 19 22 24 24 17 17 17 15 5 22 11 11 15 16 10 10 12 21 24 24 26 27 25 28 43 48 42 36
5 5 7 10 10 12 12 13 14 18 18 17 17 18 18 19 23 21 22 23 21 18 18 14 6 3 4 6 5 8 16 23 26 26 27 28 33 40 45 41 39 38 35
6 2 3 7 9 11 10 11 11 12 10 12 16 18 16 21 17 15 22 24 17 15 10 10 5 4 2 3 7 12 15 28 20 34 36 39 39 39 37 35 35 31 30
11 7 4 3 7 8 9 11 13 12 12 15 18 14 16 17 15 19 19 13 13 15 14 12 2 4 5 5 7 14 18 25 27 22 34 36 37 35 32 32 28 26 25
25 16 11 5 3 6 8 11 12 16 16 14 14 12 12 12 14 17 20 22 24 22 21 14 11 7 6 15 19 15 13 5 5 20 25 33 33 33 31 34 24 22 19
34 33 29 12 4 6 9 11 11 17 15 15 14 12 13 12 14 17 16 9 12 13 18 27 19 13 19 19 20 23 19 20 11 13 23 24 30 35 23 28 24 23 22
37 36 34 32 27 30 3 9 10 7 19 17 14 11 10 12 14 12 9 17 18 14 8 15 25 25 29 29 31 32 29 28 28 23 21 15 23 31 26 23 20 15 15
37 40 38 35 35 36 32 30 30 29 17 13 4 8 2 8 18 21 30 29 25 27 29 32 35 33 33 37 35 34 22 22 14 16 18 18 20 26 22 21 15 14 14
35 37 38 39 40 40 43 41 40 35 35 35 41 37 35 34 32 34 38 32 34 30 34 34 35 33 31 28 29 30 27 19 14 12 16 12 14 9 5 14 11 7 9
Wind_Direction
303 279 270 280 280 278 274 283 274 283 291 288 292 294 292 289 287 282 279 281 289 279 264 260 253 253 250 244 241 237 236 231 225 220 219 221 215 214 215 211 211 209 210
296 297 284 276 282 286 285 279 283 285 289 284 284 287 291 285 285 284 283 282 279 278 275 270 260 253 248 246 244 242 240 237 232 225 221 222 222 215 217 216 216 217 217
291 290 291 279 288 297 299 287 284 281 284 290 284 283 285 288 284 280 278 280 282 280 272 279 269 262 260 250 247 246 244 240 237 232 228 222 223 224 218 218 218 220 222
287 286 284 273 278 276 282 284 277 276 277 279 282 277 280 286 289 285 285 281 280 277 275 267 273 275 263 260 258 250 244 241 240 241 234 230 224 225 222 220 218 223 225
289 292 288 267 257 265 267 272 277 283 272 268 270 275 274 270 277 288 286 282 279 278 278 276 270 268 273 271 260 259 249 242 239 238 237 231 229 226 225 221 221 222 225
285 287 290 283 263 249 260 263 267 269 269 272 273 270 276 288 288 278 278 274 273 276 272 270 272 275 274 267 268 262 259 251 244 237 235 235 232 229 228 224 222 223 221
284 285 288 286 283 261 259 261 261 263 253 262 257 268 277 278 275 272 269 260 272 277 281 284 276 274 274 273 268 261 259 255 250 244 237 235 232 231 229 227 223 224 223
275 274 269 273 273 270 263 256 255 259 257 249 252 248 272 283 276 276 267 263 253 263 277 291 296 293 292 287 269 266 260 257 257 252 243 237 232 230 229 229 226 222 225
276 270 271 274 279 281 276 267 250 252 244 247 240 226 242 230 257 272 269 276 273 278 283 290 287 295 297 289 298 287 261 258 259 258 252 244 236 229 226 226 225 221 223
268 266 268 270 269 266 266 266 265 253 251 240 238 239 250 264 256 280 286 282 277 272 266 276 288 289 283 291 295 293 281 266 257 262 257 251 242 233 227 222 221 222 225
269 264 261 263 263 262 260 255 257 255 249 236 230 232 233 240 256 230 260 262 250 260 264 269 275 288 295 287 287 294 288 283 266 263 261 259 250 238 231 225 220 225 219
272 265 259 256 255 254 250 251 252 259 252 253 242 234 224 213 219 232 239 244 240 257 269 273 288 295 295 288 295 292 283 285 277 265 266 258 257 247 234 227 224 218 213
272 266 261 256 252 252 251 252 251 253 252 253 251 244 239 241 249 248 245 245 243 276 281 284 287 288 288 290 286 285 278 280 274 276 261 261 256 250 240 231 224 219 215
268 268 267 261 255 252 251 247 256 261 250 254 258 243 238 238 248 250 241 222 260 257 274 276 285 281 283 298 284 274 281 290 277 278 261 256 255 251 243 233 228 221 214
269 260 258 262 254 255 249 250 250 248 256 262 272 249 251 247 242 250 259 252 210 222 254 271 288 293 295 297 299 299 294 287 279 269 272 250 249 245 242 236 229 226 217
265 262 254 257 256 249 248 245 244 247 251 250 260 269 270 249 242 243 250 255 241 207 252 263 280 290 298 298 299 299 292 280 271 262 271 246 245 240 241 234 227 213 187
258 253 248 249 252 244 240 245 245 240 242 250 251 246 260 264 269 248 239 244 242 231 228 268 279 286 287 292 313 308 300 285 268 253 258 241 238 235 239 226 208 172 157
240 251 244 240 241 244 241 248 240 242 248 239 245 248 247 249 257 261 256 242 243 240 248 246 277 257 270 298 305 324 348 308 249 245 238 233 232 218 174 148 148 142 139
333 252 236 229 233 239 243 249 250 239 245 242 245 249 247 245 245 257 265 253 247 243 243 252 275 259 295 316 329 41 47 50 58 113 121 121 140 136 129 129 128 129 128
355 317 244 228 232 236 244 249 249 244 247 254 254 253 248 252 257 257 259 250 249 252 255 276 279 209 196 100 108 64 31 70 31 82 94 98 98 102 106 109 112 114 119
52 43 34 233 246 240 245 239 234 226 250 248 249 259 245 248 253 250 262 279 278 275 276 282 192 176 179 136 118 98 68 68 50 58 82 87 90 92 94 97 101 105 111
40 40 38 31 289 260 252 242 228 228 232 234 234 247 238 244 257 266 270 272 268 262 253 237 211 186 158 138 130 110 101 53 73 56 81 82 85 82 89 92 93 92 99
24 33 28 18 353 304 276 278 268 213 221 239 242 242 244 245 245 252 259 277 285 273 269 229 210 166 139 143 126 100 86 88 69 80 80 69 86 85 88 97 75 96 95
27 26 33 36 35 26 300 269 284 269 217 226 232 242 248 252 251 244 138 90 73 63 92 131 139 127 126 122 112 107 100 92 87 79 87 78 76 77 82 86 78 72 80
29 30 29 39 43 44 48 50 59 59 68 56 323 262 0 91 99 103 98 91 80 87 95 106 108 112 115 121 118 113 90 93 83 64 72 77 77 83 83 89 98 90 83
35 34 33 39 46 51 53 56 58 61 67 65 63 66 72 83 88 83 82 79 77 73 80 86 88 90 91 93 100 102 95 86 93 85 92 98 104 77 58 70 76 71 82